Wind_Speed
17 19 19 17 17 18 18 18 20 23 25 25 26 27 28 27 27 26 24 25 26 26 26 26 25 25 26 26 25 25 23 22 24 22 21 22 20 20 20 18 18 17 16 15 14 15 15 14 14 15 14 13 13 12 11 10 10 10 9 10 9 9 9
16 16 18 18 18 19 19 20 22 24 25 25 26 27 28 27 27 27 25 26 27 26 26 26 26 26 26 25 25 25 24 24 25 23 21 21 20 20 20 19 18 17 16 15 14 14 14 14 14 14 14 13 13 12 12 11 11 11 11 11 11 10 10
15 16 17 18 18 18 19 20 23 26 26 26 27 27 28 29 29 29 28 26 27 27 26 26 27 27 26 26 25 26 26 25 26 25 23 21 20 20 20 19 18 17 16 15 13 13 13 13 14 14 13 13 13 13 13 12 12 12 12 11 11 11 10
16 17 17 18 18 19 20 20 22 26 28 28 29 29 29 30 30 30 29 28 27 27 27 28 28 27 27 27 26 26 26 26 27 25 22 21 20 20 20 18 17 17 16 14 13 13 13 13 14 14 14 13 13 13 14 13 13 13 12 12 11 11 10
16 16 16 17 18 17 18 19 21 25 28 29 30 29 30 31 29 29 29 29 28 29 29 29 27 26 26 26 26 26 26 28 28 23 21 23 21 20 20 18 17 16 15 14 14 14 14 14 14 14 15 15 14 14 14 14 13 13 13 12 11 10 10
14 15 15 15 16 17 18 19 22 27 29 29 30 29 29 29 29 29 29 28 29 28 28 29 27 26 26 26 26 25 25 28 27 23 23 24 22 22 22 19 18 17 16 16 16 16 16 16 15 15 16 16 16 15 15 15 14 13 13 13 12 10 10
12 14 15 15 16 17 19 20 22 27 29 29 29 28 28 29 29 29 29 28 29 29 28 29 28 27 26 26 26 25 25 26 25 24 25 24 23 23 21 20 20 20 19 20 20 18 19 20 19 18 18 17 16 16 15 15 15 14 13 13 13 11 10
12 13 15 16 17 17 18 17 19 24 26 27 28 28 28 28 28 29 29 28 29 29 29 29 29 28 26 26 26 26 25 25 25 26 26 24 25 24 21 21 24 24 22 22 21 20 20 20 20 20 20 18 16 15 15 16 15 14 13 13 13 12 11
12 13 15 16 16 16 15 15 17 20 24 26 27 27 28 28 27 28 29 29 28 28 29 30 29 28 27 25 25 25 25 25 25 26 26 27 28 25 22 22 25 26 25 22 19 19 21 20 19 20 20 19 18 18 17 16 15 15 14 13 13 12 11
10 12 13 14 15 13 13 14 15 17 19 21 24 25 26 26 26 27 27 28 28 28 29 29 28 27 26 26 25 25 25 26 27 27 28 29 28 25 23 22 21 22 24 21 15 17 22 20 19 21 20 19 21 21 19 17 16 15 14 14 13 12 12
8 10 11 13 13 13 13 14 14 14 15 18 22 23 24 24 25 25 26 27 28 27 27 28 27 26 26 25 25 26 27 29 29 28 30 30 27 24 21 16 13 16 22 23 19 20 24 23 24 25 22 22 23 21 19 19 17 16 15 14 12 12 12
7 8 10 12 12 13 13 13 14 15 15 17 21 22 23 23 24 24 24 25 26 26 26 26 26 26 25 25 25 27 29 30 29 28 30 28 20 15 14 14 15 19 24 28 28 29 28 28 31 29 26 27 26 21 19 19 18 18 16 14 12 12 13
6 7 9 10 11 12 13 13 15 16 16 18 21 22 22 23 24 24 23 24 24 24 23 23 24 24 24 24 24 26 28 28 27 26 24 21 18 19 21 22 24 25 28 32 34 35 33 33 35 33 30 30 27 24 23 21 20 19 17 15 14 14 14
8 8 9 10 12 14 14 14 15 16 16 17 20 22 22 22 23 23 22 23 23 23 22 21 21 22 23 22 22 23 24 24 21 19 18 19 24 28 25 26 30 32 36 40 41 42 39 36 37 36 33 30 28 27 27 24 23 21 19 17 17 17 17
10 10 11 13 14 15 15 15 15 16 16 17 19 22 21 21 22 22 21 21 21 21 21 20 20 21 22 21 21 20 20 19 17 18 20 23 27 27 24 31 38 41 44 46 46 43 37 32 34 35 33 31 30 30 29 27 25 22 19 18 17 17 18
11 12 13 14 15 15 15 15 15 15 16 16 18 21 21 21 21 21 21 21 20 21 21 20 20 20 21 20 19 17 17 18 19 21 23 27 29 28 32 40 43 44 45 45 45 42 35 31 34 35 34 34 33 31 30 29 27 23 20 19 16 16 17
11 12 13 14 14 14 14 14 15 16 16 17 19 21 21 21 21 22 22 21 20 20 20 20 20 19 20 20 18 17 18 18 20 21 22 27 32 34 38 42 43 42 41 38 38 38 33 30 31 33 33 34 33 29 29 30 27 24 23 20 15 14 16
12 12 12 13 14 14 15 16 16 18 18 18 20 22 21 21 21 21 21 21 20 20 20 20 19 18 19 19 17 18 19 19 20 23 24 27 34 38 39 41 40 37 34 30 29 30 27 25 28 32 32 31 29 26 28 30 27 25 24 20 16 15 17
12 12 12 13 13 14 16 16 16 17 17 18 20 22 21 21 20 19 19 19 18 18 19 19 19 18 18 18 17 18 20 19 21 24 26 29 35 38 38 38 37 35 30 25 23 25 26 25 26 30 30 26 24 26 29 29 26 26 24 20 17 18 17
10 9 10 11 13 14 13 13 13 14 17 19 21 22 21 20 18 16 17 17 17 17 17 17 18 17 16 17 18 17 19 20 22 25 27 28 32 36 35 34 34 32 28 22 21 24 26 25 25 26 27 27 27 28 28 26 25 26 23 18 18 19 17
8 8 8 9 11 12 12 12 12 12 15 17 18 19 19 19 17 16 16 17 17 17 17 16 17 16 16 17 17 17 19 20 21 24 25 25 28 31 33 34 33 30 25 22 22 23 24 25 25 24 26 30 29 27 25 24 24 24 20 19 20 17 16
9 10 9 8 8 9 11 12 13 13 15 16 16 17 18 18 18 17 17 17 17 17 17 16 16 16 15 16 16 17 20 20 20 21 22 23 25 26 28 31 31 27 24 23 23 23 22 23 24 24 26 28 26 24 23 22 24 23 19 20 20 16 17
8 9 10 9 9 11 13 14 14 16 17 17 16 16 17 17 18 17 17 17 17 16 16 16 15 15 15 15 16 17 19 19 19 19 20 22 23 24 25 27 26 24 24 25 25 25 24 24 24 26 28 24 20 22 22 21 24 25 20 18 18 16 18
8 8 9 10 10 12 16 18 19 20 20 19 18 17 16 17 18 17 16 16 16 15 15 14 14 14 14 15 16 16 16 17 18 18 19 20 22 23 24 24 24 23 22 21 20 21 23 23 21 23 25 21 17 20 19 18 23 25 20 17 16 15 17
8 7 8 10 11 12 15 18 19 21 21 20 18 17 17 17 18 16 14 14 14 13 13 12 12 13 13 14 15 14 14 15 15 16 17 18 20 21 20 20 22 22 21 19 18 18 21 23 21 20 19 16 15 18 18 17 20 22 20 17 14 14 17
8 7 9 11 13 15 16 17 17 18 20 19 17 16 16 17 16 15 13 12 12 11 11 11 11 11 12 12 13 13 12 12 13 14 14 15 15 16 16 17 18 19 19 18 18 19 21 22 20 19 18 15 15 16 16 16 16 18 17 14 13 16 20
9 10 11 13 15 18 18 18 17 18 19 19 18 17 17 16 16 15 13 12 12 11 11 11 11 11 12 12 12 12 11 11 11 12 11 12 13 14 14 14 15 16 19 19 17 18 20 19 17 16 17 16 16 14 12 12 12 12 12 12 14 18 20
13 13 14 16 16 17 18 17 18 19 20 20 19 17 17 17 17 15 14 13 12 11 11 11 11 10 10 11 11 10 10 10 10 10 11 12 14 15 14 14 15 17 19 20 18 17 19 19 17 17 18 18 17 14 11 11 12 12 13 14 16 18 18
16 16 17 17 17 17 17 17 17 19 20 20 19 17 17 18 17 15 14 14 13 12 12 11 10 10 10 10 11 10 10 10 11 11 10 10 12 14 14 14 15 17 18 19 19 19 19 19 19 18 18 17 15 13 12 13 14 14 15 16 17 18 18
17 17 17 18 19 20 19 17 17 18 18 18 17 16 16 18 17 15 13 13 14 15 15 13 12 12 11 11 12 11 11 11 12 12 10 10 11 12 13 14 15 16 17 17 17 18 18 18 18 17 16 14 12 11 12 14 14 14 15 15 16 18 18
16 17 17 18 19 21 21 20 19 19 17 16 15 15 16 18 19 17 14 13 15 16 16 16 15 14 13 13 13 13 12 13 13 13 12 11 12 13 13 14 15 15 16 16 17 17 16 15 15 15 13 11 9 9 10 13 13 12 14 15 15 16 16
14 15 16 16 17 19 21 21 20 19 17 16 15 15 14 15 17 18 17 17 16 15 15 16 15 14 14 14 14 14 14 14 15 15 13 12 12 13 14 14 14 14 15 16 17 15 14 13 13 13 12 9 8 8 8 11 14 13 14 16 17 16 14
12 12 13 13 13 15 18 17 16 16 16 14 13 12 11 10 11 13 16 17 15 14 15 16 16 15 15 14 14 14 15 15 15 14 14 14 14 13 14 14 13 14 15 16 16 15 13 12 11 11 11 10 10 9 9 11 14 15 15 15 15 15 14
11 11 12 13 12 13 15 15 14 14 14 12 10 9 9 9 9 11 12 13 13 14 15 16 16 15 15 15 15 15 14 14 14 14 14 14 13 12 13 14 14 15 15 15 15 14 13 13 12 11 11 10 9 10 12 13 14 15 14 13 12 13 13
10 11 11 12 12 13 13 13 12 12 12 11 10 9 9 9 10 11 11 11 12 13 14 15 15 15 15 15 15 14 14 14 13 13 14 13 11 11 12 11 10 11 11 12 12 11 10 10 10 8 8 8 9 11 13 14 14 14 15 15 15 14 13
9 10 10 10 10 11 12 11 11 11 11 10 9 9 9 9 9 10 10 11 12 12 13 14 14 14 15 14 13 14 14 13 13 13 13 13 11 12 12 9 8 8 8 9 11 10 7 6 8 8 7 7 9 13 13 11 12 15 17 18 18 16 14
9 9 9 8 8 9 9 9 8 9 9 8 7 7 7 7 8 9 9 10 11 12 13 14 13 13 13 12 12 13 13 12 13 13 13 12 12 12 12 10 9 8 7 7 8 8 8 7 9 10 8 6 7 12 11 7 9 14 17 16 15 13 11
11 10 8 8 8 7 7 7 6 6 6 5 4 4 4 5 7 8 9 11 12 12 13 13 11 11 11 11 13 14 13 12 13 13 13 12 13 13 12 10 9 8 7 6 6 7 7 7 7 9 10 9 8 9 10 9 11 13 14 13 11 10 9
Wind_Direction
198 199 198 193 191 193 193 191 190 193 193 192 191 191 193 195 197 198 199 200 203 205 204 203 203 205 209 210 211 212 212 217 223 224 226 226 225 225 221 218 219 219 221 223 224 223 217 206 201 203 207 212 213 210 208 211 214 214 213 209 210 211 211
200 199 198 195 193 192 190 187 189 192 193 194 193 193 195 195 194 196 199 200 202 204 203 202 203 205 207 208 209 210 210 215 221 222 223 223 224 224 219 216 219 221 224 226 224 219 210 199 197 200 203 208 209 206 205 209 211 211 211 209 209 212 214
201 200 197 197 195 191 188 186 188 191 191 192 193 195 196 194 194 196 198 199 201 202 202 202 203 205 206 207 208 209 210 213 218 220 222 223 223 223 219 215 219 224 226 222 213 207 203 198 198 199 203 207 206 204 206 207 208 209 211 210 211 213 215
201 202 198 197 197 193 190 188 189 190 191 192 193 194 195 195 194 196 198 199 199 200 201 203 204 205 205 206 208 209 210 212 216 217 220 223 223 223 218 211 214 220 221 215 205 201 201 199 200 201 203 206 206 205 207 208 207 208 209 210 213 214 215
201 202 199 198 197 196 194 193 191 191 191 193 192 192 194 194 194 196 198 199 200 201 202 203 204 204 205 206 208 209 209 212 214 212 217 223 222 220 215 207 205 208 206 203 200 200 199 198 203 205 203 205 207 207 208 207 207 207 207 208 212 215 219
200 197 198 198 197 197 197 198 197 194 193 192 191 191 193 194 196 198 198 198 201 202 201 202 202 203 204 205 206 207 206 208 210 209 218 223 219 216 212 203 200 200 199 203 202 199 198 199 203 208 207 207 208 209 208 208 207 207 207 209 212 216 225
200 196 197 197 197 199 199 200 200 196 194 192 191 191 193 196 198 200 200 199 201 201 201 202 202 202 203 203 204 204 202 204 205 208 216 220 218 216 208 200 203 205 205 210 209 199 199 202 202 205 209 210 209 210 210 210 210 210 208 211 215 219 229
199 194 196 196 198 201 200 201 200 196 193 192 191 192 195 197 199 201 202 202 201 202 203 204 203 202 202 202 202 202 201 202 201 205 212 216 217 213 202 199 209 211 210 213 212 204 203 206 204 204 206 206 208 213 215 214 214 215 214 213 217 221 229
199 194 198 200 200 202 200 198 197 193 191 192 192 192 194 197 199 201 202 203 203 203 204 206 205 202 200 200 200 201 202 201 200 203 209 214 215 209 201 202 209 213 213 212 209 206 209 210 208 207 204 202 205 210 214 215 217 221 220 217 219 223 230
200 196 199 203 204 204 198 192 190 189 189 191 192 192 193 195 198 200 202 203 205 205 205 206 205 202 198 198 199 199 199 201 202 203 206 209 210 207 204 202 201 205 213 214 206 208 214 211 208 209 204 202 206 207 207 209 214 222 224 222 222 225 232
196 194 197 204 204 199 191 186 184 184 185 188 190 192 193 194 196 199 201 203 205 206 206 205 205 202 199 198 200 198 199 203 203 200 202 206 208 207 204 197 184 193 213 217 211 214 218 214 212 211 206 207 210 208 205 205 206 215 222 222 224 226 232
192 192 196 201 199 194 187 182 181 181 182 185 188 191 192 193 196 198 200 203 205 206 205 204 204 202 200 200 200 199 201 203 201 199 201 205 205 194 180 180 188 201 214 219 217 219 221 219 216 212 209 212 210 203 206 207 203 207 213 218 224 228 233
196 194 195 194 192 190 185 181 182 181 181 184 187 189 190 192 195 197 198 202 204 204 203 201 202 201 201 203 202 202 204 203 199 197 195 193 186 173 173 190 205 214 220 222 221 220 220 219 216 212 211 212 205 199 205 206 201 203 210 220 229 233 235
193 193 190 188 189 190 186 184 183 182 183 185 188 190 191 193 196 197 198 200 201 202 200 198 199 199 200 204 206 205 204 202 198 189 181 179 174 171 183 208 218 222 223 221 219 219 217 215 212 211 212 209 204 204 207 205 201 205 216 227 236 242 243
198 196 189 189 193 193 189 186 185 183 185 187 188 191 192 194 196 196 197 198 198 200 199 196 196 197 200 204 205 204 204 201 187 173 176 179 170 170 198 221 222 222 220 217 217 217 213 208 208 211 211 207 206 209 209 207 204 206 220 229 234 245 249
208 200 192 193 197 197 192 188 186 183 184 187 191 192 193 193 193 193 195 196 196 198 198 195 194 197 200 202 202 202 202 190 169 164 178 185 180 188 213 223 222 222 219 214 215 215 210 204 206 210 208 207 208 207 207 208 202 200 216 230 234 247 257
215 206 199 195 196 197 191 186 183 182 184 189 191 191 191 190 190 192 195 195 193 194 194 194 194 195 198 201 199 198 197 182 166 167 177 187 194 204 217 223 224 222 219 215 213 212 208 202 202 203 202 203 205 202 203 208 202 197 210 223 228 240 257
217 209 201 196 195 193 188 186 186 186 187 188 188 189 190 188 188 190 193 192 192 191 191 192 194 194 197 202 200 197 198 186 171 170 177 189 204 212 218 224 225 222 219 215 211 208 204 198 198 200 199 199 198 195 199 205 201 198 208 218 219 225 246
226 214 203 196 192 191 191 189 188 187 186 184 185 188 189 188 187 189 189 188 187 186 186 189 193 194 196 199 198 198 201 189 171 172 181 193 207 215 218 222 223 222 218 212 207 206 203 200 200 200 197 195 192 193 200 204 200 200 210 217 214 216 236
240 228 214 200 195 196 195 191 187 185 185 185 185 186 186 187 186 184 182 181 180 182 186 188 192 195 194 194 195 197 200 189 174 176 185 194 204 211 214 218 221 221 218 209 202 203 203 201 199 196 195 195 196 198 200 200 200 208 216 215 209 214 233
240 233 225 211 203 197 188 183 180 177 181 186 184 182 181 181 180 176 176 179 180 183 188 188 190 193 192 193 194 194 197 192 180 182 190 195 201 207 211 217 222 222 217 209 204 203 202 200 197 193 193 197 199 199 196 195 204 216 222 215 212 225 246
232 226 222 214 203 188 176 175 174 169 171 177 177 175 174 175 178 179 180 182 181 183 185 185 188 190 189 191 192 193 198 194 184 187 195 197 201 207 212 217 221 219 213 210 208 204 200 197 195 190 189 193 194 192 191 197 209 221 226 219 219 237 261
233 223 215 204 190 175 166 166 165 161 159 161 166 172 174 175 178 178 176 175 175 178 181 182 185 187 187 190 191 193 197 192 185 192 199 200 203 209 214 219 220 215 210 210 210 208 201 195 190 186 184 183 185 190 194 201 211 218 224 223 226 248 268
226 222 205 192 184 173 166 165 163 159 159 164 171 176 176 173 171 167 166 167 169 173 177 178 181 183 185 187 187 189 193 189 187 195 203 205 208 212 216 220 220 216 213 209 207 204 198 190 182 179 179 177 179 190 199 206 213 219 225 225 232 256 276
200 195 179 173 174 169 165 167 165 162 164 166 167 168 166 162 158 154 155 160 162 166 170 174 176 178 179 179 178 180 188 189 190 198 205 208 211 214 215 216 219 220 217 208 197 189 184 181 176 175 179 183 188 199 206 211 218 225 227 226 235 259 273
165 158 152 152 152 148 145 150 156 157 155 149 145 149 150 147 142 140 141 149 155 158 160 163 166 167 167 167 167 170 179 187 193 201 207 206 205 209 212 213 216 216 208 196 186 179 176 174 174 178 187 194 198 204 209 212 220 228 228 229 247 262 266
144 141 137 134 135 137 136 139 143 142 135 129 130 135 136 133 129 129 133 140 145 147 149 151 152 153 154 155 157 162 170 181 190 193 193 190 191 197 203 205 206 202 192 186 180 175 176 177 179 187 196 199 199 202 210 221 232 237 234 238 251 256 255
126 124 122 123 129 134 133 131 129 126 123 123 127 129 129 126 123 125 132 136 136 137 139 140 142 144 145 146 149 156 164 169 171 169 170 180 191 197 199 202 201 193 186 185 182 175 177 183 190 198 202 202 201 204 220 238 242 238 235 239 243 246 246
117 117 118 119 121 120 117 114 112 112 114 118 121 123 125 125 125 129 135 135 133 133 131 131 136 137 136 138 144 151 156 158 158 155 160 176 187 189 191 196 195 187 182 185 185 180 182 189 195 199 200 198 197 204 221 232 231 228 232 238 243 247 247
107 111 112 112 111 107 103 100 99 98 101 105 111 118 124 127 125 126 130 135 139 139 135 134 136 135 134 137 141 144 145 149 152 152 153 163 169 173 179 183 183 183 184 186 186 186 187 189 190 192 191 188 187 198 212 218 222 231 239 240 242 245 246
96 100 101 101 103 103 102 102 101 100 100 102 107 113 122 128 128 128 135 146 149 145 140 140 140 138 139 140 139 139 140 142 147 149 151 157 162 166 170 172 174 178 181 184 190 192 189 186 187 189 189 189 186 188 203 217 227 239 241 234 231 237 242
88 91 93 95 99 104 107 107 107 108 108 110 112 116 126 134 134 137 145 151 151 147 142 139 138 138 141 140 137 138 140 142 147 150 151 153 159 164 165 168 174 178 181 188 194 193 189 188 189 191 194 200 198 186 196 220 225 225 229 228 226 228 229
76 79 83 85 91 102 108 108 109 111 111 113 116 121 128 130 128 134 143 147 148 145 140 138 138 140 140 138 136 138 142 145 148 150 151 154 160 166 168 173 180 183 187 195 195 191 191 191 188 191 198 202 199 189 190 206 211 210 213 217 216 214 211
67 68 72 73 77 88 98 102 106 109 109 110 113 115 116 117 121 129 137 142 143 141 139 140 141 142 140 138 138 140 144 148 149 151 157 161 162 165 168 173 182 188 193 198 196 193 195 194 190 193 196 192 187 187 193 201 207 208 204 195 188 188 192
68 67 65 66 67 72 79 86 92 98 103 105 108 110 109 112 121 130 135 139 142 142 141 139 139 140 140 141 142 141 143 150 155 158 162 160 151 150 158 166 178 185 186 189 193 195 192 187 185 186 187 190 192 194 201 209 212 208 198 183 172 170 175
67 70 67 67 69 69 70 71 74 81 91 97 103 108 108 111 125 137 141 143 145 144 141 139 140 142 142 142 143 143 146 155 161 162 165 161 148 145 154 163 175 177 170 176 193 203 199 179 169 167 172 192 201 201 207 213 207 200 192 181 175 176 179
53 60 64 67 72 70 69 69 68 72 83 91 98 106 112 121 137 144 142 142 148 149 146 144 144 144 144 143 141 142 150 159 160 161 164 162 157 158 161 165 173 180 183 188 199 210 212 199 185 184 189 189 186 195 204 201 187 188 185 178 179 187 194
48 49 53 60 66 67 69 72 70 72 83 94 105 118 130 139 146 149 148 149 152 151 146 144 143 143 144 142 138 143 156 162 161 166 166 158 161 170 169 164 165 170 183 198 201 202 207 208 208 217 222 216 203 208 213 200 181 178 178 179 188 196 201
Height
709 710 711 714 717 721 724 726 731 735 739 743 746 749 752 756 759 762 765 767 769 772 775 778 780 783 785 787 790 792 794 796 799 800 802 803 805 806 808 809 811 813 815 816 818 819 821 822 824 826 827 829 830 831 832 833 833 834 835 836 836 837 838
704 706 707 709 711 714 717 720 725 729 733 737 741 744 747 750 754 757 760 762 765 768 771 774 777 779 781 783 786 788 790 793 796 798 799 801 802 803 805 807 809 811 813 814 816 818 819 821 823 825 826 827 828 829 831 832 832 833 834 835 836 836 837
700 701 701 703 705 708 711 714 718 722 726 731 734 739 742 745 748 751 755 758 761 765 768 770 772 775 777 780 782 783 786 789 793 795 797 798 800 801 803 805 807 809 811 813 815 816 818 820 822 824 825 826 828 829 830 830 831 832 833 834 835 835 836
696 695 696 699 700 703 705 706 710 714 719 723 727 732 736 740 743 746 750 754 757 760 763 766 768 770 773 775 777 780 782 786 790 792 794 796 798 799 801 802 803 806 809 811 813 815 817 819 821 822 824 825 827 827 828 829 830 831 832 833 834 834 835
693 692 693 696 697 700 701 702 705 708 712 717 722 727 731 735 739 742 746 749 752 756 758 761 764 767 769 771 773 776 779 783 787 789 791 793 795 797 798 799 801 804 807 809 811 814 816 818 820 821 822 823 825 826 827 828 829 830 831 832 832 833 833
689 690 691 692 693 695 696 697 699 702 707 711 716 722 726 731 735 738 742 745 748 751 754 758 760 762 765 767 770 773 776 780 784 786 789 790 792 793 794 796 798 801 804 806 808 811 813 815 817 820 821 821 823 824 825 826 827 828 829 831 831 831 832
683 685 687 687 688 689 690 692 693 697 703 706 711 717 721 725 729 733 737 740 743 747 750 753 756 758 760 763 766 769 773 777 779 782 785 787 789 790 791 792 795 798 800 802 805 807 809 811 812 816 818 819 821 822 824 825 826 827 827 829 830 830 831
677 680 682 682 682 683 685 687 690 694 699 703 707 711 715 720 723 728 731 734 738 742 744 748 751 754 756 759 762 765 769 773 775 778 781 783 785 786 787 788 791 794 797 800 803 805 807 809 810 812 815 817 820 822 823 824 825 826 826 827 828 828 829
672 675 677 677 677 678 680 683 687 691 695 699 703 706 711 715 718 722 726 729 733 736 739 743 745 748 752 755 758 762 766 769 771 773 775 779 781 782 783 785 788 792 795 800 803 804 806 808 810 812 813 815 818 819 821 822 824 825 825 825 826 826 827
670 674 675 674 675 675 677 680 684 688 692 696 700 703 707 711 714 718 721 725 728 731 734 738 741 744 747 750 754 758 761 763 764 767 770 774 777 777 780 784 788 793 797 801 805 806 806 808 809 811 812 813 814 815 816 818 821 823 824 824 824 825 825
670 673 674 674 674 674 676 679 682 686 689 693 697 700 704 708 711 714 717 720 723 726 730 733 737 740 743 746 750 753 755 756 759 763 766 769 771 774 781 788 793 796 798 801 804 804 803 804 806 807 808 809 811 813 814 814 816 819 822 822 822 823 824
671 672 675 675 675 675 676 679 681 684 687 691 694 698 701 705 708 711 714 717 720 723 726 729 733 736 739 742 745 747 749 751 755 759 762 767 772 778 785 790 792 792 793 795 797 797 796 797 798 801 803 804 806 809 812 812 812 815 817 819 820 821 822
670 671 673 673 674 676 677 678 681 682 685 688 691 695 698 701 704 708 711 714 717 720 723 726 730 732 736 738 740 743 745 748 752 756 761 768 772 775 780 784 784 785 787 788 789 789 789 790 791 793 796 799 800 803 806 808 809 810 813 815 817 819 820
668 670 671 671 673 675 676 678 679 680 683 685 689 693 695 699 702 705 708 711 714 717 720 723 727 730 732 735 737 740 742 747 751 756 761 766 765 768 775 779 778 777 777 777 777 777 779 781 784 787 790 794 796 798 800 802 803 805 808 811 814 817 818
666 668 669 670 672 672 673 675 676 678 680 683 686 690 692 696 699 702 705 709 712 715 718 721 724 727 729 732 735 738 741 746 751 755 759 761 762 766 771 771 766 763 763 764 767 770 773 777 781 784 788 790 792 794 795 797 798 800 804 807 810 813 815
662 663 664 666 668 669 669 671 673 675 678 680 683 686 689 693 696 699 702 705 709 712 715 718 721 724 726 729 732 736 741 745 748 751 754 756 758 761 761 758 756 756 758 761 764 768 771 774 776 779 783 785 786 788 790 793 793 795 799 803 806 810 812
659 659 659 660 663 665 666 668 670 673 675 677 679 683 686 689 692 696 698 702 706 709 712 715 718 721 724 727 730 734 739 743 745 748 751 752 754 754 752 752 754 756 758 760 763 765 767 769 771 774 777 779 781 784 786 789 790 791 794 798 801 805 809
655 655 654 656 659 662 663 665 666 668 670 672 676 680 684 686 689 692 695 698 702 705 709 712 715 719 721 724 727 731 736 740 741 744 748 748 748 748 748 750 752 754 757 759 761 763 764 766 768 769 772 774 777 780 782 785 787 789 793 794 796 801 805
651 650 650 652 655 657 659 658 660 663 665 668 673 677 681 683 686 689 692 696 699 702 706 709 712 716 718 721 725 728 733 736 737 740 743 743 743 745 746 748 750 751 753 756 758 759 761 763 765 766 769 772 775 777 779 783 785 788 791 792 793 797 801
648 648 647 649 651 652 654 655 657 660 663 666 670 674 678 682 685 688 691 694 698 701 704 707 710 713 716 719 722 726 730 733 733 736 739 740 742 743 745 747 747 749 752 754 755 756 758 760 762 764 767 770 773 776 778 781 784 787 790 791 791 794 797
647 647 648 648 648 649 651 654 656 658 662 666 669 672 676 679 683 686 690 693 696 699 702 705 708 710 713 717 720 723 727 729 730 733 736 739 741 742 743 744 745 747 750 751 752 753 755 757 760 762 765 768 772 775 778 780 784 788 789 789 790 792 795
643 644 645 646 646 647 649 651 654 657 661 665 668 672 674 677 681 684 687 690 693 697 700 703 705 708 711 714 717 720 723 725 727 730 733 736 738 740 741 742 742 744 746 748 749 750 753 756 758 759 763 767 770 773 776 779 783 786 787 787 789 791 793
637 638 639 640 642 645 647 650 653 656 660 663 668 671 673 675 678 681 683 687 691 694 697 700 703 706 709 712 715 717 720 723 724 727 731 733 735 737 738 740 741 742 743 745 746 748 751 754 755 757 761 765 768 772 775 778 781 783 784 785 787 790 791
633 633 634 635 639 642 645 648 650 654 658 662 665 669 671 673 676 679 682 686 689 693 696 699 702 705 708 711 713 716 718 720 722 725 728 730 732 734 736 738 740 741 742 744 745 747 751 753 754 757 760 763 767 770 773 776 777 779 781 783 785 787 789
633 632 632 633 637 640 644 647 649 652 655 659 663 666 669 672 674 678 682 685 688 692 695 698 701 704 707 710 712 714 716 719 721 723 725 727 729 731 734 736 738 740 742 744 746 748 750 752 755 758 760 763 766 769 771 773 774 776 779 780 782 784 786
634 634 633 633 636 640 643 647 649 651 653 657 662 666 669 672 675 678 682 686 689 692 695 699 702 704 706 708 710 712 715 717 720 722 723 725 727 730 733 735 737 739 741 743 746 748 750 753 756 759 761 763 766 768 770 771 772 774 776 777 780 782 784
634 634 634 635 639 642 644 646 649 650 653 657 662 666 669 672 675 679 683 686 689 692 695 699 702 704 706 707 709 711 713 716 719 720 722 724 726 729 731 734 736 737 739 742 746 748 751 754 757 759 761 762 764 766 768 769 771 772 774 776 778 780 781
634 634 636 639 642 644 645 646 649 651 653 656 661 665 668 671 675 679 683 686 689 693 696 699 702 704 706 707 709 711 713 715 717 719 721 723 725 728 730 733 735 736 738 742 745 747 750 753 755 757 758 760 762 764 765 767 769 771 772 774 776 778 779
634 636 638 640 644 646 647 648 650 652 654 658 662 666 669 672 676 680 683 686 689 692 696 699 702 705 706 708 709 711 713 715 716 718 720 723 725 728 730 732 734 736 738 741 743 746 748 750 752 754 755 757 759 761 763 765 767 768 770 772 773 775 776
635 636 637 640 643 646 648 650 653 655 659 662 665 669 672 674 678 682 686 688 689 690 693 697 701 704 706 708 709 711 712 714 716 718 721 724 726 728 730 733 734 736 738 741 743 744 746 747 749 751 753 755 757 759 760 763 764 766 768 769 771 772 774
637 638 639 642 646 648 650 653 656 659 663 666 668 672 674 676 677 681 687 690 691 691 691 694 699 702 704 707 708 710 711 714 717 719 722 724 727 729 731 733 735 737 739 741 742 743 744 746 748 749 751 753 755 757 759 760 762 764 765 767 769 770 772
641 641 643 646 649 651 653 655 658 661 664 668 670 673 676 678 679 680 683 687 690 691 692 693 697 701 704 706 707 708 711 714 716 719 722 724 727 729 731 732 734 736 739 740 741 743 744 745 747 748 750 752 753 755 757 759 761 763 763 765 767 768 769
647 647 648 651 652 654 655 657 660 663 665 669 672 675 678 680 681 682 684 685 688 690 692 693 697 701 704 705 707 709 712 714 717 719 721 723 726 729 730 731 733 736 738 739 740 741 743 744 746 747 749 751 752 754 756 758 759 761 762 763 764 765 766
652 652 653 654 656 657 658 659 663 666 669 672 675 677 679 681 683 685 686 688 690 692 693 694 697 700 702 704 707 710 712 715 717 719 721 723 725 727 728 730 732 735 736 738 738 740 742 743 744 746 748 749 751 753 755 757 758 759 760 761 761 763 764
656 656 657 658 659 661 662 664 666 669 672 675 677 679 681 683 684 686 688 690 692 693 694 695 697 699 701 703 706 709 712 715 717 718 720 722 724 725 726 729 731 733 735 737 738 739 740 741 742 745 746 748 750 752 753 755 756 756 757 758 759 761 763
659 660 661 662 664 664 666 668 670 672 675 677 679 681 682 683 685 687 688 689 691 693 695 696 697 699 701 703 705 708 711 714 716 718 720 722 723 725 727 729 731 732 734 736 738 739 740 740 742 743 745 747 749 751 752 752 752 753 755 756 758 760 761
663 663 665 666 667 668 669 671 673 674 676 678 680 681 683 684 685 687 688 689 691 693 695 696 697 698 700 702 705 708 711 714 716 719 720 722 723 726 728 730 732 733 735 736 738 739 740 741 742 743 745 747 749 749 750 750 751 752 754 756 757 759 760
667 667 669 669 670 671 672 673 675 676 677 679 681 682 683 684 685 687 688 690 692 693 694 695 696 698 700 702 705 709 712 714 716 719 720 722 724 726 727 729 731 733 735 736 737 738 740 741 742 743 744 746 747 747 748 749 750 751 753 755 756 757 759